AAL1915 KMEM-KMIA

Flight info

Callsign AAL1915
Flight time 1h 40m
Altitude 39000
Route BBKNG7 KERMI DCT MGMRY DCT ACORI FROGZ5
Aircraft B738/M-SDE2E3FGHIRWXY/LB1

Departure

Time 2026-05-05 23:50
Airport Memphis International Airport (KMEM)

Arrival

Time 2026-05-06 01:31
Airport Miami International Airport (KMIA)
Time Latitude Longitude Altitude Speed Heading
2026-05-05 23:25 35.04077 -89.98031 310 ft 0 kts 44°
2026-05-05 23:39 35.04070 -89.98040 310 ft 2 kts 43°
2026-05-05 23:39 35.04058 -89.98054 310 ft 2 kts 43°
2026-05-05 23:40 35.04046 -89.98067 308 ft 2 kts 42°
2026-05-05 23:40 35.04033 -89.98080 308 ft 2 kts 40°
2026-05-05 23:40 35.04025 -89.98089 309 ft 2 kts 40°
2026-05-05 23:40 35.04016 -89.98100 308 ft 0 kts 85°
2026-05-05 23:41 35.04016 -89.98101 308 ft 0 kts 86°
2026-05-05 23:42 35.04016 -89.98095 308 ft 4 kts 86°
2026-05-05 23:43 35.04009 -89.98035 309 ft 10 kts 100°
2026-05-05 23:43 35.03997 -89.97947 311 ft 12 kts 102°
2026-05-05 23:43 35.03984 -89.97840 312 ft 15 kts 91°
2026-05-05 23:43 35.03990 -89.97745 311 ft 6 kts 61°
2026-05-05 23:44 35.04027 -89.97729 313 ft 7 kts 352°
2026-05-05 23:44 35.04098 -89.97740 315 ft 14 kts 355°
2026-05-05 23:44 35.04216 -89.97742 315 ft 20 kts 359°
2026-05-05 23:44 35.04325 -89.97744 315 ft 12 kts 359°
2026-05-05 23:45 35.04407 -89.97746 315 ft 12 kts 359°
2026-05-05 23:45 35.04486 -89.97748 316 ft 11 kts 360°
2026-05-05 23:45 35.04563 -89.97748 315 ft 12 kts 359°
2026-05-05 23:45 35.04649 -89.97750 313 ft 13 kts 358°
2026-05-05 23:46 35.04742 -89.97753 311 ft 13 kts 359°
2026-05-05 23:46 35.04833 -89.97754 312 ft 13 kts 359°
2026-05-05 23:46 35.04921 -89.97756 313 ft 12 kts 359°
2026-05-05 23:46 35.05007 -89.97758 314 ft 12 kts 359°
2026-05-05 23:47 35.05090 -89.97760 314 ft 12 kts 359°
2026-05-05 23:47 35.05172 -89.97761 316 ft 12 kts 359°
2026-05-05 23:47 35.05251 -89.97763 319 ft 11 kts 359°
2026-05-05 23:47 35.05328 -89.97770 322 ft 11 kts 351°
2026-05-05 23:48 35.05402 -89.97781 322 ft 11 kts
2026-05-05 23:48 35.05442 -89.97767 321 ft 4 kts 34°
2026-05-05 23:48 35.05448 -89.97734 323 ft 4 kts 92°
2026-05-05 23:48 35.05445 -89.97697 323 ft 5 kts 97°
2026-05-05 23:49 35.05440 -89.97654 325 ft 6 kts 100°
2026-05-05 23:49 35.05406 -89.97616 324 ft 8 kts 174°
2026-05-05 23:49 35.05389 -89.97615 324 ft 0 kts 179°
2026-05-05 23:50 35.05177 -89.97614 317 ft 78 kts 179°
2026-05-05 23:50 35.04335 -89.97597 315 ft 160 kts 179°
2026-05-05 23:50 35.03051 -89.97569 622 ft 205 kts 180°
2026-05-05 23:50 35.01534 -89.97556 1275 ft 228 kts 185°
2026-05-05 23:51 34.99937 -89.97553 2349 ft 233 kts 180°
2026-05-05 23:51 34.98272 -89.97318 3117 ft 251 kts 172°
2026-05-05 23:51 34.96597 -89.96478 3923 ft 273 kts 158°
2026-05-05 23:51 34.94864 -89.95305 4489 ft 296 kts 156°
2026-05-05 23:52 34.93056 -89.93937 5149 ft 315 kts 146°
2026-05-05 23:52 34.91642 -89.91820 6058 ft 336 kts 123°
2026-05-05 23:52 34.90955 -89.89013 6791 ft 355 kts 94°
2026-05-05 23:52 34.91180 -89.86052 8053 ft 347 kts 84°
2026-05-05 23:53 34.91383 -89.83156 9300 ft 339 kts 86°
2026-05-05 23:53 34.91639 -89.80316 9862 ft 343 kts 82°
2026-05-05 23:53 34.91898 -89.77436 10174 ft 342 kts 85°
2026-05-05 23:53 34.92008 -89.74455 10322 ft 366 kts 90°
2026-05-05 23:54 34.91959 -89.71250 10599 ft 389 kts 93°
2026-05-05 23:54 34.91812 -89.67913 11196 ft 399 kts 94°
2026-05-05 23:54 34.91637 -89.64516 11934 ft 405 kts 94°
2026-05-05 23:54 34.91523 -89.61062 12655 ft 411 kts 90°
2026-05-05 23:55 34.91515 -89.57554 13362 ft 418 kts 88°
2026-05-05 23:55 34.91542 -89.53987 14029 ft 424 kts 88°
2026-05-05 23:55 34.91569 -89.50378 14728 ft 428 kts 88°
2026-05-05 23:55 34.91585 -89.46732 15395 ft 433 kts 89°
2026-05-05 23:56 34.91588 -89.43040 16069 ft 438 kts 89°
2026-05-05 23:56 34.91583 -89.39309 16719 ft 443 kts 89°
2026-05-05 23:56 34.91573 -89.35530 17383 ft 449 kts 90°
2026-05-05 23:56 34.91561 -89.31760 18018 ft 454 kts 90°
2026-05-05 23:57 34.91548 -89.27894 18589 ft 458 kts 90°
2026-05-05 23:57 34.91534 -89.23999 19180 ft 462 kts 90°
2026-05-05 23:57 34.91421 -89.20085 19816 ft 463 kts 98°
2026-05-05 23:57 34.90777 -89.16242 20426 ft 465 kts 105°
2026-05-05 23:58 34.89993 -89.12405 20980 ft 469 kts 104°
2026-05-05 23:58 34.89263 -89.08514 21507 ft 473 kts 103°
2026-05-05 23:58 34.88574 -89.04584 22044 ft 477 kts 102°
2026-05-05 23:58 34.87902 -89.00617 22575 ft 480 kts 102°
2026-05-05 23:59 34.87232 -88.96613 23096 ft 484 kts 102°
2026-05-05 23:59 34.86557 -88.92588 23571 ft 487 kts 102°
2026-05-05 23:59 34.85882 -88.88584 23952 ft 491 kts 102°
2026-05-05 23:59 34.85187 -88.84493 24319 ft 495 kts 102°
2026-05-06 00:00 34.84485 -88.80390 24795 ft 496 kts 102°
2026-05-06 00:00 34.83774 -88.76257 25167 ft 501 kts 102°
2026-05-06 00:00 34.83057 -88.72096 25493 ft 506 kts 102°
2026-05-06 00:00 34.82329 -88.67886 25869 ft 509 kts 102°
2026-05-06 00:01 34.81597 -88.63653 26234 ft 513 kts 102°
2026-05-06 00:01 34.80858 -88.59395 26582 ft 517 kts 102°
2026-05-06 00:01 34.80112 -88.55100 26920 ft 520 kts 102°
2026-05-06 00:01 34.79360 -88.50780 27250 ft 524 kts 102°
2026-05-06 00:02 34.78600 -88.46424 27583 ft 528 kts 102°
2026-05-06 00:02 34.77845 -88.42111 27977 ft 529 kts 102°
2026-05-06 00:02 34.77076 -88.37723 28319 ft 532 kts 102°
2026-05-06 00:02 34.76299 -88.33301 28609 ft 536 kts 102°
2026-05-06 00:03 34.75516 -88.28852 28885 ft 541 kts 102°
2026-05-06 00:03 34.74725 -88.24367 29182 ft 544 kts 102°
2026-05-06 00:03 34.73929 -88.19862 29490 ft 547 kts 102°
2026-05-06 00:03 34.73125 -88.15329 29798 ft 550 kts 102°
2026-05-06 00:04 34.72317 -88.10774 30051 ft 553 kts 102°
2026-05-06 00:04 34.71500 -88.06194 30278 ft 555 kts 102°
2026-05-06 00:04 34.70671 -88.01604 30562 ft 557 kts 102°
2026-05-06 00:04 34.69843 -87.97071 30886 ft 557 kts 102°
2026-05-06 00:05 34.68150 -87.87900 31617 ft 556 kts 102°
2026-05-06 00:05 34.67297 -87.83325 31963 ft 556 kts 102°
2026-05-06 00:05 34.66436 -87.78738 32284 ft 556 kts 102°
2026-05-06 00:06 34.65570 -87.74155 32603 ft 557 kts 102°
2026-05-06 00:06 34.64701 -87.69575 32948 ft 557 kts 102°
2026-05-06 00:06 34.63823 -87.65012 33394 ft 554 kts 102°
2026-05-06 00:06 34.62938 -87.60461 33757 ft 554 kts 102°
2026-05-06 00:07 34.62046 -87.55913 34037 ft 555 kts 102°
2026-05-06 00:07 34.61160 -87.51417 34268 ft 556 kts 102°
2026-05-06 00:07 34.60259 -87.46854 34526 ft 556 kts 102°
2026-05-06 00:07 34.59356 -87.42277 34811 ft 556 kts 102°
2026-05-06 00:08 34.58453 -87.37696 35088 ft 556 kts 102°
2026-05-06 00:08 34.57563 -87.33170 35349 ft 557 kts 102°
2026-05-06 00:08 34.56659 -87.28572 35600 ft 558 kts 102°
2026-05-06 00:08 34.55752 -87.23980 35841 ft 559 kts 102°
2026-05-06 00:09 34.54845 -87.19390 36101 ft 559 kts 102°
2026-05-06 00:09 34.53939 -87.14792 36372 ft 559 kts 102°
2026-05-06 00:09 34.53047 -87.10259 36621 ft 559 kts 102°
2026-05-06 00:09 34.52147 -87.05670 36837 ft 560 kts 102°
2026-05-06 00:10 34.51243 -87.01049 37068 ft 561 kts 102°
2026-05-06 00:10 34.50345 -86.96441 37322 ft 560 kts 102°
2026-05-06 00:10 34.49448 -86.91829 37596 ft 560 kts 102°
2026-05-06 00:10 34.48564 -86.87291 37818 ft 561 kts 102°
2026-05-06 00:11 34.47666 -86.82679 38043 ft 561 kts 102°
2026-05-06 00:11 34.46770 -86.78073 38313 ft 560 kts 102°
2026-05-06 00:11 34.45878 -86.73470 38528 ft 561 kts 102°
2026-05-06 00:11 34.44993 -86.68895 38643 ft 563 kts 102°
2026-05-06 00:12 34.44099 -86.64262 38730 ft 566 kts 102°
2026-05-06 00:12 34.43203 -86.59611 38861 ft 566 kts 102°
2026-05-06 00:12 34.42307 -86.54970 38912 ft 567 kts 102°
2026-05-06 00:13 34.40493 -86.45631 38958 ft 569 kts 102°
2026-05-06 00:13 34.38679 -86.36337 38979 ft 571 kts 102°
2026-05-06 00:14 34.36838 -86.26937 38981 ft 573 kts 102°
2026-05-06 00:14 34.35009 -86.17582 38983 ft 574 kts 102°
2026-05-06 00:15 34.33152 -86.08157 38965 ft 573 kts 102°
2026-05-06 00:15 34.31299 -85.98828 38960 ft 572 kts 102°
2026-05-06 00:16 34.29431 -85.89455 38957 ft 570 kts 102°
2026-05-06 00:16 34.27579 -85.80185 38963 ft 568 kts 102°
2026-05-06 00:17 34.25720 -85.70906 38951 ft 566 kts 102°
2026-05-06 00:17 34.23879 -85.61724 38968 ft 564 kts 102°
2026-05-06 00:18 34.22031 -85.52502 38966 ft 563 kts 102°
2026-05-06 00:18 34.20196 -85.43343 38968 ft 562 kts 102°
2026-05-06 00:19 34.18344 -85.34152 38970 ft 562 kts 102°
2026-05-06 00:19 34.16487 -85.25011 38964 ft 563 kts 102°
2026-05-06 00:20 34.14609 -85.15808 38964 ft 563 kts 102°
2026-05-06 00:20 34.12732 -85.06623 38998 ft 564 kts 102°
2026-05-06 00:21 34.10856 -84.97472 38978 ft 564 kts 102°
2026-05-06 00:21 34.08949 -84.88269 39003 ft 564 kts 102°
2026-05-06 00:22 34.07037 -84.79086 39006 ft 565 kts 102°
2026-05-06 00:22 34.05120 -84.69889 39021 ft 565 kts 102°
2026-05-06 00:23 34.03205 -84.60736 39029 ft 565 kts 102°
2026-05-06 00:23 34.01267 -84.51537 39015 ft 565 kts 102°
2026-05-06 00:24 33.99324 -84.42353 38980 ft 563 kts 102°
2026-05-06 00:24 33.97398 -84.33272 39008 ft 562 kts 102°
2026-05-06 00:25 33.95454 -84.24124 39018 ft 560 kts 102°
2026-05-06 00:25 33.93521 -84.15097 39005 ft 558 kts 102°
2026-05-06 00:26 33.91577 -84.06059 39012 ft 556 kts 102°
2026-05-06 00:26 33.89646 -83.97086 39014 ft 554 kts 102°
2026-05-06 00:27 33.87714 -83.88120 39028 ft 552 kts 102°
2026-05-06 00:27 33.85773 -83.79191 39024 ft 551 kts 102°
2026-05-06 00:28 33.83826 -83.70275 39019 ft 549 kts 102°
2026-05-06 00:28 33.81893 -83.61438 39023 ft 548 kts 102°
2026-05-06 00:29 33.79958 -83.52587 39021 ft 547 kts 102°
2026-05-06 00:29 33.78020 -83.43800 39016 ft 547 kts 102°
2026-05-06 00:30 33.76051 -83.34956 39005 ft 546 kts 102°
2026-05-06 00:30 33.74073 -83.26116 39027 ft 547 kts 102°
2026-05-06 00:31 33.72091 -83.17267 39028 ft 548 kts 102°
2026-05-06 00:31 33.70112 -83.08462 39034 ft 549 kts 102°
2026-05-06 00:32 33.68104 -82.99574 39022 ft 550 kts 102°
2026-05-06 00:32 33.66104 -82.90734 39013 ft 550 kts 102°
2026-05-06 00:33 33.64107 -82.81916 39013 ft 549 kts 102°
2026-05-06 00:33 33.62098 -82.73067 39054 ft 548 kts 102°
2026-05-06 00:34 33.60095 -82.64274 39049 ft 547 kts 102°
2026-05-06 00:34 33.58086 -82.55472 39061 ft 545 kts 102°
2026-05-06 00:35 33.56094 -82.46754 39004 ft 544 kts 102°
2026-05-06 00:35 33.54093 -82.38003 39031 ft 542 kts 102°
2026-05-06 00:36 33.52102 -82.29308 39013 ft 540 kts 102°
2026-05-06 00:36 33.50091 -82.20636 39012 ft 540 kts 106°
2026-05-06 00:36 33.48443 -82.16595 39007 ft 540 kts 128°
2026-05-06 00:37 33.45914 -82.13397 39018 ft 531 kts 148°
2026-05-06 00:37 33.42750 -82.11293 38981 ft 512 kts 169°
2026-05-06 00:37 33.39337 -82.10515 39022 ft 487 kts 191°
2026-05-06 00:37 33.36095 -82.11064 39018 ft 458 kts 212°
2026-05-06 00:38 33.33392 -82.12799 39004 ft 425 kts 233°
2026-05-06 00:38 33.31365 -82.15259 39109 ft 417 kts 234°
2026-05-06 00:38 33.27172 -82.17827 38894 ft 475 kts 205°
2026-05-06 00:39 33.20120 -82.20629 38991 ft 466 kts 212°
2026-05-06 00:39 33.02824 -82.27471 38958 ft 481 kts 209°
2026-05-06 00:39 32.49511 -82.43749 38599 ft 501 kts 203°
2026-05-06 00:39 31.95738 -82.56741 38460 ft 478 kts 206°
2026-05-06 00:40 31.45562 -82.72465 38825 ft 460 kts 208°
2026-05-06 00:40 30.95197 -82.88017 39412 ft 479 kts 205°
2026-05-06 00:40 30.42927 -83.01553 39163 ft 489 kts 204°
2026-05-06 00:40 29.90327 -83.15979 38790 ft 477 kts 206°
2026-05-06 00:41 29.39068 -83.31016 39017 ft 477 kts 204°
2026-05-06 00:41 29.15174 -83.36775 39221 ft 497 kts 189°
2026-05-06 00:41 29.11691 -83.36180 39114 ft 515 kts 166°
2026-05-06 00:41 29.08526 -83.34290 39073 ft 526 kts 146°
2026-05-06 00:42 29.05779 -83.31513 39066 ft 527 kts 136°
2026-05-06 00:42 29.01636 -83.26376 39039 ft 526 kts 133°
2026-05-06 00:43 28.96496 -83.20467 39025 ft 521 kts 145°
2026-05-06 00:43 28.92537 -83.17417 39040 ft 514 kts 156°
2026-05-06 00:43 28.90414 -83.16130 39049 ft 511 kts 159°
2026-05-06 00:44 28.83926 -83.12856 39058 ft 515 kts 163°
2026-05-06 00:44 28.77246 -83.09708 39030 ft 521 kts 162°
2026-05-06 00:45 28.70583 -83.06449 39042 ft 524 kts 162°
2026-05-06 00:45 28.63897 -83.03092 39038 ft 525 kts 161°
2026-05-06 00:46 28.57206 -82.99721 39033 ft 524 kts 161°
2026-05-06 00:46 28.50588 -82.96398 39036 ft 522 kts 161°
2026-05-06 00:47 28.43947 -82.93076 39037 ft 519 kts 161°
2026-05-06 00:47 28.37348 -82.89780 39036 ft 516 kts 161°
2026-05-06 00:48 28.30833 -82.86531 39037 ft 513 kts 161°
2026-05-06 00:48 28.24304 -82.83279 39036 ft 511 kts 161°
2026-05-06 00:49 28.17797 -82.80042 39010 ft 509 kts 161°
2026-05-06 00:49 28.11297 -82.76813 39043 ft 509 kts 161°
2026-05-06 00:50 28.04846 -82.73612 39053 ft 510 kts 161°
2026-05-06 00:50 27.98214 -82.70881 39046 ft 500 kts 176°
2026-05-06 00:51 27.91354 -82.69607 39043 ft 498 kts 179°
2026-05-06 00:51 27.84511 -82.68438 39028 ft 501 kts 178°
2026-05-06 00:52 27.77605 -82.67127 39024 ft 504 kts 176°
2026-05-06 00:52 27.70676 -82.65752 39018 ft 506 kts 176°
2026-05-06 00:53 27.63727 -82.64376 39016 ft 506 kts 176°
2026-05-06 00:53 27.56812 -82.63017 39020 ft 506 kts 176°
2026-05-06 00:54 27.49866 -82.61509 39025 ft 509 kts 172°
2026-05-06 00:54 27.43024 -82.59471 39031 ft 510 kts 170°
2026-05-06 00:55 27.36184 -82.57347 39033 ft 508 kts 171°
2026-05-06 00:55 27.29376 -82.55310 38683 ft 511 kts 171°
2026-05-06 00:55 27.25929 -82.54300 38105 ft 509 kts 171°
2026-05-06 00:56 27.22513 -82.53300 37714 ft 503 kts 171°
2026-05-06 00:56 27.19138 -82.52314 37308 ft 498 kts 171°
2026-05-06 00:56 27.15828 -82.51347 36917 ft 493 kts 171°
2026-05-06 00:56 27.12520 -82.50382 36535 ft 488 kts 171°
2026-05-06 00:57 27.09244 -82.49426 36165 ft 484 kts 171°
2026-05-06 00:57 27.05997 -82.48478 35789 ft 480 kts 171°
2026-05-06 00:57 27.02773 -82.47538 35404 ft 476 kts 171°
2026-05-06 00:57 26.99569 -82.46605 35025 ft 473 kts 171°
2026-05-06 00:58 26.96426 -82.45689 34635 ft 470 kts 170°
2026-05-06 00:58 26.93267 -82.44752 34266 ft 468 kts 167°
2026-05-06 00:58 26.90295 -82.43205 33790 ft 475 kts 146°
2026-05-06 00:58 26.87723 -82.40876 33352 ft 473 kts 140°
2026-05-06 00:59 26.85281 -82.38482 32857 ft 472 kts 139°
2026-05-06 00:59 26.82822 -82.36041 32382 ft 470 kts 139°
2026-05-06 00:59 26.80370 -82.33622 31918 ft 468 kts 139°
2026-05-06 00:59 26.77914 -82.31227 31458 ft 466 kts 140°
2026-05-06 01:00 26.75491 -82.28888 31008 ft 464 kts 140°
2026-05-06 01:00 26.73042 -82.26539 30555 ft 463 kts 140°
2026-05-06 01:00 26.70599 -82.24203 30084 ft 461 kts 140°
2026-05-06 01:00 26.68154 -82.21868 29560 ft 460 kts 140°
2026-05-06 01:01 26.65707 -82.19532 29086 ft 458 kts 140°
2026-05-06 01:01 26.63297 -82.17230 28608 ft 455 kts 140°
2026-05-06 01:01 26.60927 -82.14968 28169 ft 451 kts 140°
2026-05-06 01:01 26.58537 -82.12687 27727 ft 448 kts 140°
2026-05-06 01:02 26.56162 -82.10422 27288 ft 445 kts 140°
2026-05-06 01:02 26.53813 -82.08182 26859 ft 442 kts 140°
2026-05-06 01:02 26.51517 -82.05966 26435 ft 439 kts 139°
2026-05-06 01:02 26.49248 -82.03697 26010 ft 437 kts 138°
2026-05-06 01:03 26.47003 -82.01418 25586 ft 434 kts 138°
2026-05-06 01:03 26.44777 -81.99153 25146 ft 432 kts 138°
2026-05-06 01:03 26.42555 -81.96899 24722 ft 430 kts 138°
2026-05-06 01:03 26.40338 -81.94659 24290 ft 428 kts 139°
2026-05-06 01:04 26.38120 -81.92425 23869 ft 426 kts 139°
2026-05-06 01:04 26.35919 -81.90212 23412 ft 425 kts 139°
2026-05-06 01:04 26.33751 -81.88035 22953 ft 422 kts 139°
2026-05-06 01:04 26.31584 -81.85859 22512 ft 418 kts 139°
2026-05-06 01:05 26.29424 -81.83691 22099 ft 414 kts 139°
2026-05-06 01:05 26.27284 -81.81544 21693 ft 410 kts 139°
2026-05-06 01:05 26.25170 -81.79426 21296 ft 407 kts 138°
2026-05-06 01:05 26.23294 -81.77140 20865 ft 404 kts 121°
2026-05-06 01:06 26.22039 -81.74372 20486 ft 399 kts 113°
2026-05-06 01:06 26.20864 -81.71568 20054 ft 397 kts 113°
2026-05-06 01:06 26.19692 -81.68792 19618 ft 396 kts 114°
2026-05-06 01:06 26.18509 -81.66023 19195 ft 394 kts 114°
2026-05-06 01:07 26.17323 -81.63270 18764 ft 393 kts 114°
2026-05-06 01:07 26.16139 -81.60541 18332 ft 391 kts 114°
2026-05-06 01:07 26.14954 -81.57818 17859 ft 389 kts 114°
2026-05-06 01:07 26.13793 -81.55154 17420 ft 385 kts 114°
2026-05-06 01:08 26.12626 -81.52479 17000 ft 382 kts 114°
2026-05-06 01:08 26.11466 -81.49821 16586 ft 379 kts 115°
2026-05-06 01:08 26.10317 -81.47187 16180 ft 375 kts 115°
2026-05-06 01:08 26.09181 -81.44587 15775 ft 372 kts 115°
2026-05-06 01:09 26.08050 -81.41998 15343 ft 370 kts 115°
2026-05-06 01:09 26.06941 -81.39464 14965 ft 367 kts 115°
2026-05-06 01:09 26.05827 -81.36911 14630 ft 363 kts 115°
2026-05-06 01:09 26.04730 -81.34393 14308 ft 358 kts 115°
2026-05-06 01:10 26.03649 -81.31911 13995 ft 354 kts 115°
2026-05-06 01:10 26.02592 -81.29486 13661 ft 351 kts 115°
2026-05-06 01:10 26.01533 -81.27058 13329 ft 346 kts 115°
2026-05-06 01:10 26.00488 -81.24661 13006 ft 342 kts 115°
2026-05-06 01:11 25.99456 -81.22298 12696 ft 338 kts 115°
2026-05-06 01:11 25.98436 -81.19960 12384 ft 333 kts 116°
2026-05-06 01:11 25.97427 -81.17652 12093 ft 329 kts 116°
2026-05-06 01:11 25.96443 -81.15401 11810 ft 326 kts 116°
2026-05-06 01:12 25.95454 -81.13142 11525 ft 322 kts 116°
2026-05-06 01:12 25.94478 -81.10912 11233 ft 319 kts 116°
2026-05-06 01:12 25.93512 -81.08707 10957 ft 316 kts 116°
2026-05-06 01:12 25.92555 -81.06524 10678 ft 313 kts 116°
2026-05-06 01:13 25.91606 -81.04361 10403 ft 310 kts 116°
2026-05-06 01:13 25.90709 -81.02227 10141 ft 308 kts 114°
2026-05-06 01:13 25.89879 -81.00047 9853 ft 305 kts 113°
2026-05-06 01:13 25.89064 -80.97873 9558 ft 303 kts 113°
2026-05-06 01:14 25.87444 -80.93604 9001 ft 297 kts 114°
2026-05-06 01:14 25.86639 -80.91502 8744 ft 293 kts 113°
2026-05-06 01:14 25.85841 -80.89421 8467 ft 292 kts 114°
2026-05-06 01:15 25.85046 -80.87353 8227 ft 291 kts 114°
2026-05-06 01:15 25.84259 -80.85308 7948 ft 290 kts 114°
2026-05-06 01:15 25.83466 -80.83248 7667 ft 290 kts 114°
2026-05-06 01:15 25.82672 -80.81184 7370 ft 290 kts 114°
2026-05-06 01:16 25.81882 -80.79132 7080 ft 288 kts 114°
2026-05-06 01:16 25.81095 -80.77089 6783 ft 287 kts 114°
2026-05-06 01:16 25.80311 -80.75055 6503 ft 285 kts 114°
2026-05-06 01:16 25.79542 -80.73059 6199 ft 284 kts 114°
2026-05-06 01:17 25.78766 -80.71050 5903 ft 281 kts 114°
2026-05-06 01:17 25.77997 -80.69058 5612 ft 280 kts 114°
2026-05-06 01:17 25.77257 -80.67061 5307 ft 278 kts 107°
2026-05-06 01:17 25.77100 -80.64962 5048 ft 275 kts 86°
2026-05-06 01:18 25.77233 -80.62852 4766 ft 273 kts 86°
2026-05-06 01:18 25.77345 -80.60756 4495 ft 271 kts 87°
2026-05-06 01:18 25.77446 -80.58670 4224 ft 269 kts 87°
2026-05-06 01:18 25.77543 -80.56612 4041 ft 263 kts 87°
2026-05-06 01:19 25.77631 -80.54631 3993 ft 251 kts 88°
2026-05-06 01:19 25.77711 -80.52764 3969 ft 239 kts 87°
2026-05-06 01:19 25.77791 -80.50915 3985 ft 233 kts 87°
2026-05-06 01:19 25.77866 -80.49165 3994 ft 232 kts 87°
2026-05-06 01:20 25.77942 -80.47384 3996 ft 230 kts 87°
2026-05-06 01:20 25.78017 -80.45616 3993 ft 229 kts 87°
2026-05-06 01:20 25.78091 -80.43862 3992 ft 227 kts 87°
2026-05-06 01:20 25.78200 -80.42146 3992 ft 226 kts 78°
2026-05-06 01:21 25.78905 -80.40621 4000 ft 223 kts 43°
2026-05-06 01:21 25.80240 -80.39799 3999 ft 223 kts
2026-05-06 01:21 25.81799 -80.39678 3877 ft 230 kts 358°
2026-05-06 01:21 25.83361 -80.40079 3620 ft 234 kts 330°
2026-05-06 01:22 25.84592 -80.41232 3400 ft 231 kts 314°
2026-05-06 01:22 25.85693 -80.42534 3141 ft 231 kts 313°
2026-05-06 01:22 25.86769 -80.43863 2916 ft 231 kts 312°
2026-05-06 01:22 25.87663 -80.45341 2650 ft 233 kts 289°
2026-05-06 01:23 25.87812 -80.47111 2563 ft 233 kts 267°
2026-05-06 01:23 25.87687 -80.48913 2536 ft 240 kts 265°
2026-05-06 01:23 25.87538 -80.50759 2510 ft 237 kts 265°
2026-05-06 01:23 25.87363 -80.52569 2375 ft 235 kts 258°
2026-05-06 01:24 25.86643 -80.54172 2111 ft 232 kts 223°
2026-05-06 01:24 25.85310 -80.55075 1893 ft 222 kts 190°
2026-05-06 01:24 25.83806 -80.55336 1676 ft 218 kts 183°
2026-05-06 01:24 25.82296 -80.55516 1559 ft 220 kts 181°
2026-05-06 01:25 25.80771 -80.55689 1510 ft 221 kts 182°
2026-05-06 01:25 25.79260 -80.55696 1481 ft 211 kts 163°
2026-05-06 01:25 25.78025 -80.55017 1473 ft 191 kts 130°
2026-05-06 01:25 25.77555 -80.53783 1480 ft 172 kts 86°
2026-05-06 01:26 25.77724 -80.52486 1506 ft 172 kts 84°
2026-05-06 01:26 25.77809 -80.51164 1506 ft 171 kts 86°
2026-05-06 01:26 25.77867 -80.49862 1502 ft 165 kts 86°
2026-05-06 01:26 25.77919 -80.48598 1524 ft 163 kts 86°
2026-05-06 01:27 25.77970 -80.47336 1508 ft 163 kts 86°
2026-05-06 01:27 25.78020 -80.46093 1496 ft 159 kts 86°
2026-05-06 01:27 25.78069 -80.44862 1489 ft 161 kts 86°
2026-05-06 01:27 25.78119 -80.43607 1496 ft 164 kts 85°
2026-05-06 01:28 25.78169 -80.42368 1485 ft 160 kts 87°
2026-05-06 01:28 25.78218 -80.41130 1512 ft 160 kts 86°
2026-05-06 01:28 25.78272 -80.39911 1540 ft 153 kts 85°
2026-05-06 01:28 25.78323 -80.38735 1326 ft 153 kts 88°
2026-05-06 01:29 25.78357 -80.37565 1108 ft 149 kts 85°
2026-05-06 01:29 25.78411 -80.36441 919 ft 142 kts 87°
2026-05-06 01:29 25.78458 -80.35370 702 ft 136 kts 86°
2026-05-06 01:29 25.78489 -80.34336 558 ft 132 kts 86°
2026-05-06 01:30 25.78528 -80.33320 442 ft 138 kts 84°
2026-05-06 01:30 25.78583 -80.32245 313 ft 136 kts 88°
2026-05-06 01:30 25.78618 -80.31229 96 ft 125 kts 84°
2026-05-06 01:30 25.78657 -80.30340 21 ft 99 kts 87°
2026-05-06 01:31 25.78687 -80.29639 20 ft 76 kts 87°
2026-05-06 01:31 25.78696 -80.29416 19 ft 12 kts 85°
2026-05-06 01:31 25.78714 -80.29296 22 ft 16 kts 77°
2026-05-06 01:31 25.78776 -80.29182 20 ft 20 kts 41°
2026-05-06 01:32 25.78822 -80.29060 19 ft 20 kts 86°
2026-05-06 01:32 25.78856 -80.28891 20 ft 24 kts 73°
2026-05-06 01:32 25.78869 -80.28730 17 ft 15 kts 83°
2026-05-06 01:32 25.78887 -80.28620 20 ft 14 kts 54°
2026-05-06 01:33 25.78963 -80.28554 20 ft 14 kts 35°
2026-05-06 01:33 25.79040 -80.28494 19 ft 13 kts 35°
2026-05-06 01:33 25.79114 -80.28437 20 ft 13 kts 31°
2026-05-06 01:33 25.79195 -80.28400 21 ft 12 kts 17°
2026-05-06 01:34 25.79272 -80.28359 23 ft 12 kts 35°
2026-05-06 01:34 25.79326 -80.28288 21 ft 12 kts 54°
2026-05-06 01:34 25.79357 -80.28237 21 ft 12 kts 59°
2026-05-06 01:34 25.79423 -80.28183 22 ft 7 kts 27°
2026-05-06 01:35 25.79451 -80.28167 22 ft 2 kts 27°
2026-05-06 01:35 25.79454 -80.28165 22 ft 0 kts 27°